| time (UTC) | temp C | wind direction | speed KPH | gust KPH | rain 1hr cm | rain 24hr cm | rain mn cm | humidity % | barometer mb |
| 20260506140107 | 11 | 21 | 14.5 | 29.0 | 0.00 | 0.00 | 0.00 | 84 | 944.6 |
| 20260506135844 | 11 | 342 | 16.1 | 25.7 | 0.00 | 0.00 | 0.00 | 84 | 944.3 |
| 20260506135108 | 11 | 15 | 16.1 | 25.7 | 0.00 | 0.00 | 0.00 | 84 | 944.2 |
| 20260506134607 | 11 | 28 | 14.5 | 25.7 | 0.00 | 0.00 | 0.00 | 85 | 944.5 |
| 20260506134109 | 11 | 26 | 12.9 | 25.7 | 0.00 | 0.00 | 0.00 | 84 | 944.6 |
| 20260506133608 | 11 | 0 | 12.9 | 25.7 | 0.00 | 0.00 | 0.00 | 85 | 944.7 |
| 20260506133108 | 11 | 17 | 12.9 | 25.7 | 0.00 | 0.00 | 0.00 | 85 | 945.0 |
| 20260506132608 | 11 | 340 | 11.3 | 20.9 | 0.00 | 0.00 | 0.00 | 85 | 944.8 |
| 20260506132109 | 11 | 5 | 12.9 | 22.5 | 0.00 | 0.00 | 0.00 | 84 | 944.8 |
| 20260506131607 | 11 | 343 | 12.9 | 22.5 | 0.00 | 0.00 | 0.00 | 85 | 944.2 |
| 20260506131105 | 11 | 11 | 16.1 | 25.7 | 0.00 | 0.00 | 0.00 | 85 | 944.0 |
| 20260506130836 | 11 | 355 | 16.1 | 25.7 | 0.00 | 0.00 | 0.00 | 85 | 943.9 |
| 20260506130107 | 11 | 343 | 14.5 | 25.7 | 0.00 | 0.00 | 0.00 | 85 | 943.8 |
| 20260506125605 | 11 | 28 | 12.9 | 20.9 | 0.00 | 0.00 | 0.00 | 85 | 943.9 |
| 20260506125103 | 11 | 14 | 11.3 | 19.3 | 0.00 | 0.00 | 0.00 | 85 | 944.1 |
| 20260506124603 | 11 | 11 | 11.3 | 19.3 | 0.00 | 0.00 | 0.00 | 85 | 944.2 |
| 20260506124104 | 11 | 18 | 12.9 | 27.4 | 0.00 | 0.00 | 0.00 | 86 | 944.2 |
| 20260506123610 | 11 | 0 | 14.5 | 20.9 | 0.00 | 0.00 | 0.00 | 86 | 943.5 |
| 20260506123605 | 11 | 30 | 14.5 | 27.4 | 0.00 | 0.00 | 0.00 | 85 | 943.6 |
| 20260506122605 | 11 | 333 | 12.9 | 20.9 | 0.00 | 0.00 | 0.00 | 86 | 943.8 |
| 20260506122104 | 11 | 344 | 9.7 | 19.3 | 0.00 | 0.00 | 0.00 | 87 | 943.6 |
| 20260506121605 | 11 | 22 | 8.0 | 16.1 | 0.00 | 0.00 | 0.00 | 87 | 943.5 |
| 20260506121059 | 11 | 351 | 8.0 | 16.1 | 0.00 | 0.00 | 0.00 | 87 | 943.5 |
| 20260506120600 | 11 | 0 | 8.0 | 17.7 | 0.00 | 0.00 | 0.00 | 87 | 943.5 |
| 20260506120059 | 11 | 24 | 9.7 | 22.5 | 0.00 | 0.00 | 0.00 | 86 | 943.6 |
| 20260506115600 | 11 | 37 | 12.9 | 22.5 | 0.00 | 0.00 | 0.00 | 86 | 942.8 |
| 20260506115059 | 11 | 345 | 14.5 | 22.5 | 0.00 | 0.00 | 0.00 | 85 | 942.8 |
| 20260506114832 | 11 | 350 | 11.3 | 22.5 | 0.00 | 0.00 | 0.00 | 85 | 942.7 |
| 20260506114113 | 11 | 0 | 11.3 | 20.9 | 0.00 | 0.00 | 0.00 | 86 | 942.2 |
| 20260506114103 | 11 | 342 | 11.3 | 20.9 | 0.00 | 0.00 | 0.00 | 86 | 942.5 |
| 20260506113335 | 11 | 11 | 11.3 | 17.7 | 0.00 | 0.00 | 0.00 | 86 | 942.1 |
| 20260506112556 | 11 | 9 | 11.3 | 19.3 | 0.00 | 0.00 | 0.00 | 86 | 942.3 |
| 20260506112050 | 11 | 22 | 9.7 | 19.3 | 0.00 | 0.00 | 0.00 | 86 | 942.3 |
| 20260506111815 | 11 | 355 | 12.9 | 25.7 | 0.00 | 0.00 | 0.00 | 86 | 942.3 |
| 20260506111310 | 10 | 351 | 12.9 | 25.7 | 0.00 | 0.00 | 0.00 | 86 | 942.2 |
| 20260506110536 | 11 | 21 | 12.9 | 20.9 | 0.00 | 0.00 | 0.00 | 86 | 941.9 |
| 20260506110034 | 11 | 351 | 11.3 | 20.9 | 0.00 | 0.00 | 0.00 | 86 | 942.1 |
| 20260506105533 | 11 | 342 | 12.9 | 24.1 | 0.00 | 0.00 | 0.00 | 86 | 942.1 |
| 20260506105033 | 11 | 347 | 14.5 | 24.1 | 0.00 | 0.00 | 0.00 | 86 | 942.0 |
| 20260506104534 | 11 | 12 | 16.1 | 25.7 | 0.00 | 0.00 | 0.00 | 86 | 942.0 |
| 20260506104309 | 11 | 355 | 14.5 | 25.7 | 0.00 | 0.00 | 0.00 | 86 | 941.9 |
| 20260506103533 | 11 | 355 | 11.3 | 24.1 | 0.00 | 0.00 | 0.00 | 86 | 941.9 |
| 20260506103034 | 11 | 324 | 11.3 | 22.5 | 0.00 | 0.00 | 0.00 | 87 | 942.0 |
| 20260506102806 | 11 | 343 | 11.3 | 25.7 | 0.00 | 0.00 | 0.00 | 87 | 942.0 |
| 20260506102046 | 11 | 319 | 12.9 | 22.5 | 0.00 | 0.00 | 0.00 | 87 | 941.8 |
| 20260506102034 | 11 | 9 | 14.5 | 25.7 | 0.00 | 0.00 | 0.00 | 87 | 941.7 |
| 20260506101033 | 10 | 351 | 11.3 | 20.9 | 0.00 | 0.00 | 0.00 | 88 | 941.8 |
| 20260506100533 | 10 | 334 | 8.0 | 17.7 | 0.00 | 0.00 | 0.00 | 87 | 941.9 |
| 20260506100033 | 10 | 14 | 9.7 | 16.1 | 0.00 | 0.00 | 0.00 | 87 | 941.8 |
| 20260506095534 | 10 | 336 | 9.7 | 16.1 | 0.00 | 0.00 | 0.00 | 87 | 941.6 |
| 20260506095033 | 10 | 9 | 9.7 | 16.1 | 0.00 | 0.00 | 0.00 | 87 | 941.5 |
| 20260506094804 | 11 | 318 | 9.7 | 16.1 | 0.00 | 0.00 | 0.00 | 87 | 941.4 |
| 20260506094028 | 11 | 325 | 9.7 | 17.7 | 0.00 | 0.00 | 0.00 | 87 | 941.3 |
| 20260506093522 | 11 | 342 | 9.7 | 17.7 | 0.00 | 0.00 | 0.00 | 86 | 941.1 |
| 20260506093017 | 11 | 10 | 11.3 | 17.7 | 0.00 | 0.00 | 0.00 | 87 | 940.9 |
| 20260506092509 | 11 | 348 | 11.3 | 19.3 | 0.00 | 0.00 | 0.00 | 86 | 940.9 |
| 20260506092003 | 11 | 351 | 9.7 | 19.3 | 0.00 | 0.00 | 0.00 | 86 | 940.9 |
| 20260506091457 | 11 | 338 | 9.7 | 16.1 | 0.00 | 0.00 | 0.00 | 86 | 941.1 |
| 20260506091222 | 11 | 350 | 9.7 | 16.1 | 0.00 | 0.00 | 0.00 | 86 | 941.2 |
| 20260506090446 | 11 | 11 | 9.7 | 17.7 | 0.00 | 0.00 | 0.00 | 85 | 941.1 |
| 20260506085939 | 11 | 18 | 11.3 | 19.3 | 0.00 | 0.00 | 0.00 | 85 | 941.0 |
| 20260506085434 | 11 | 36 | 9.7 | 19.3 | 0.00 | 0.00 | 0.00 | 85 | 941.0 |
| 20260506084927 | 11 | 5 | 8.0 | 16.1 | 0.00 | 0.00 | 0.00 | 85 | 941.0 |
| 20260506084422 | 11 | 344 | 8.0 | 16.1 | 0.00 | 0.00 | 0.00 | 85 | 941.0 |
| 20260506083915 | 11 | 350 | 9.7 | 19.3 | 0.00 | 0.00 | 0.00 | 85 | 941.2 |
| 20260506083410 | 11 | 334 | 9.7 | 19.3 | 0.00 | 0.00 | 0.00 | 85 | 941.1 |
| 20260506082903 | 11 | 338 | 11.3 | 17.7 | 0.00 | 0.00 | 0.00 | 85 | 941.0 |
| 20260506082357 | 11 | 0 | 12.9 | 24.1 | 0.00 | 0.00 | 0.00 | 85 | 940.9 |
| 20260506081852 | 11 | 22 | 12.9 | 24.1 | 0.00 | 0.00 | 0.00 | 85 | 941.0 |
| 20260506081618 | 12 | 329 | 11.3 | 20.9 | 0.00 | 0.00 | 0.00 | 84 | 941.0 |
| 20260506080839 | 12 | 13 | 9.7 | 17.7 | 0.00 | 0.00 | 0.00 | 84 | 940.9 |
| 20260506080334 | 12 | 0 | 9.7 | 17.7 | 0.00 | 0.00 | 0.00 | 84 | 940.8 |
| 20260506073257 | 12 | 15 | 8.0 | 16.1 | 0.00 | 0.00 | 0.00 | 82 | 941.2 |
| 20260506073023 | 12 | 348 | 8.0 | 16.1 | 0.00 | 0.00 | 0.00 | 82 | 941.1 |
| 20260506072246 | 12 | 0 | 9.7 | 20.9 | 0.00 | 0.00 | 0.00 | 82 | 941.1 |
| 20260506071742 | 12 | 344 | 9.7 | 20.9 | 0.00 | 0.00 | 0.00 | 82 | 941.1 |
| 20260506071243 | 12 | 26 | 9.7 | 17.7 | 0.00 | 0.00 | 0.00 | 82 | 941.2 |
| 20260506070742 | 13 | 17 | 8.0 | 16.1 | 0.00 | 0.00 | 0.00 | 81 | 941.0 |
| 20260506070518 | 13 | 39 | 8.0 | 16.1 | 0.00 | 0.00 | 0.00 | 81 | 940.9 |
| 20260506062242 | 13 | 11 | 11.3 | 19.3 | 0.00 | 0.00 | 0.00 | 78 | 940.8 |
| 20260506061743 | 14 | 346 | 11.3 | 20.9 | 0.00 | 0.00 | 0.00 | 78 | 940.7 |
| 20260506061243 | 14 | 0 | 9.7 | 20.9 | 0.00 | 0.00 | 0.00 | 77 | 940.6 |
| 20260506060752 | 14 | 30 | 9.7 | 19.3 | 0.00 | 0.00 | 0.00 | 76 | 940.7 |
| 20260506060743 | 14 | 9 | 9.7 | 19.3 | 0.00 | 0.00 | 0.00 | 77 | 940.9 |
| 20260506051227 | 16 | 35 | 6.4 | 17.7 | 0.00 | 0.00 | 0.00 | 71 | 939.8 |
| 20260506050725 | 16 | 23 | 9.7 | 17.7 | 0.00 | 0.00 | 0.00 | 70 | 939.7 |
| 20260506050226 | 16 | 19 | 9.7 | 17.7 | 0.00 | 0.00 | 0.00 | 69 | 939.7 |
| 20260506044726 | 17 | 57 | 8.0 | 19.3 | 0.00 | 0.00 | 0.00 | 68 | 939.8 |
| 20260506044227 | 17 | 21 | 8.0 | 14.5 | 0.00 | 0.00 | 0.00 | 69 | 939.8 |
| 20260506043726 | 17 | 50 | 8.0 | 14.5 | 0.00 | 0.00 | 0.00 | 68 | 939.8 |
| 20260506042727 | 18 | 11 | 9.7 | 19.3 | 0.00 | 0.00 | 0.00 | 67 | 939.4 |
| 20260506042456 | 18 | 41 | 9.7 | 22.5 | 0.00 | 0.00 | 0.00 | 66 | 939.4 |
| 20260506041725 | 18 | 49 | 9.7 | 22.5 | 0.00 | 0.00 | 0.00 | 65 | 939.8 |
| 20260506041457 | 18 | 344 | 8.0 | 14.5 | 0.00 | 0.00 | 0.00 | 66 | 939.7 |
| 20260506040727 | 18 | 21 | 8.0 | 14.5 | 0.00 | 0.00 | 0.00 | 65 | 939.6 |
| 20260506040502 | 18 | 334 | 8.0 | 14.5 | 0.00 | 0.00 | 0.00 | 64 | 939.5 |
| 20260506035726 | 19 | 5 | 6.4 | 12.9 | 0.00 | 0.00 | 0.00 | 63 | 939.5 |
| 20260506035227 | 19 | 12 | 6.4 | 14.5 | 0.00 | 0.00 | 0.00 | 63 | 939.6 |
| 20260506034725 | 19 | 44 | 8.0 | 16.1 | 0.00 | 0.00 | 0.00 | 63 | 939.4 |
| 20260506034226 | 19 | 19 | 8.0 | 16.1 | 0.00 | 0.00 | 0.00 | 62 | 939.4 |
| 20260506033956 | 20 | 13 | 6.4 | 14.5 | 0.00 | 0.00 | 0.00 | 63 | 939.4 |
| 20260506033227 | 20 | 5 | 6.4 | 14.5 | 0.00 | 0.00 | 0.00 | 62 | 939.5 |
| 20260506032957 | 20 | 0 | 6.4 | 14.5 | 0.00 | 0.00 | 0.00 | 62 | 939.4 |
| 20260506032226 | 20 | 19 | 6.4 | 14.5 | 0.00 | 0.00 | 0.00 | 62 | 939.3 |
| 20260506031724 | 20 | 351 | 6.4 | 14.5 | 0.00 | 0.00 | 0.00 | 62 | 939.4 |
| 20260506031224 | 20 | 31 | 8.0 | 14.5 | 0.00 | 0.00 | 0.00 | 62 | 939.4 |
| 20260506030724 | 20 | 325 | 8.0 | 14.5 | 0.00 | 0.00 | 0.00 | 62 | 939.3 |
| 20260506030221 | 20 | 336 | 8.0 | 14.5 | 0.00 | 0.00 | 0.00 | 62 | 939.1 |
| 20260506025721 | 20 | 355 | 8.0 | 14.5 | 0.00 | 0.00 | 0.00 | 62 | 938.9 |
| 20260506025216 | 20 | 51 | 6.4 | 14.5 | 0.00 | 0.00 | 0.00 | 63 | 938.9 |
| 20260506024710 | 20 | 9 | 6.4 | 12.9 | 0.00 | 0.00 | 0.00 | 64 | 938.9 |
| 20260506024442 | 20 | 343 | 4.8 | 12.9 | 0.00 | 0.00 | 0.00 | 64 | 938.8 |
| 20260506023708 | 20 | 0 | 4.8 | 8.0 | 0.00 | 0.00 | 0.00 | 64 | 938.7 |
| 20260506023206 | 20 | 342 | 4.8 | 8.0 | 0.00 | 0.00 | 0.00 | 64 | 938.7 |
| 20260506022937 | 21 | 350 | 3.2 | 8.0 | 0.00 | 0.00 | 0.00 | 64 | 938.6 |
| 20260506022434 | 21 | 336 | 3.2 | 4.8 | 0.00 | 0.00 | 0.00 | 65 | 938.5 |
| 20260506021158 | 21 | 12 | 3.2 | 8.0 | 0.00 | 0.00 | 0.00 | 62 | 938.4 |
| 20260506020157 | 21 | 0 | 3.2 | 6.4 | 0.00 | 0.00 | 0.00 | 61 | 938.2 |
| 20260506015659 | 22 | 49 | 4.8 | 6.4 | 0.00 | 0.00 | 0.00 | 62 | 938.0 |
| 20260506015159 | 22 | 22 | 4.8 | 8.0 | 0.00 | 0.00 | 0.00 | 60 | 938.1 |
| 20260506014655 | 22 | 9 | 4.8 | 11.3 | 0.00 | 0.00 | 0.00 | 61 | 938.0 |
| 20260506014424 | 22 | 24 | 4.8 | 11.3 | 0.00 | 0.00 | 0.00 | 59 | 938.0 |
| 20260506013654 | 23 | 350 | 4.8 | 11.3 | 0.00 | 0.00 | 0.00 | 58 | 937.8 |
| 20260506013154 | 23 | 355 | 4.8 | 8.0 | 0.00 | 0.00 | 0.00 | 58 | 937.7 |
| 20260506012652 | 23 | 5 | 4.8 | 11.3 | 0.00 | 0.00 | 0.00 | 57 | 937.6 |
| 20260506012149 | 23 | 14 | 6.4 | 11.3 | 0.00 | 0.00 | 0.00 | 56 | 937.6 |
| 20260506011702 | 24 | 344 | 6.4 | 12.9 | 0.00 | 0.00 | 0.00 | 55 | 937.3 |
| 20260506011650 | 24 | 355 | 6.4 | 12.9 | 0.00 | 0.00 | 0.00 | 56 | 937.4 |
| 20260506010646 | 25 | 36 | 6.4 | 12.9 | 0.00 | 0.00 | 0.00 | 55 | 937.3 |
| 20260506010140 | 25 | 25 | 6.4 | 14.5 | 0.00 | 0.00 | 0.00 | 55 | 937.1 |
| 20260506005634 | 25 | 33 | 6.4 | 16.1 | 0.00 | 0.00 | 0.00 | 56 | 937.1 |
| 20260506005359 | 25 | 57 | 8.0 | 16.1 | 0.00 | 0.00 | 0.00 | 56 | 936.9 |
| 20260506004853 | 25 | 46 | 6.4 | 16.1 | 0.00 | 0.00 | 0.00 | 53 | 936.7 |
| 20260506004347 | 26 | 22 | 4.8 | 12.9 | 0.00 | 0.00 | 0.00 | 51 | 936.9 |
| 20260506003842 | 26 | 34 | 4.8 | 12.9 | 0.00 | 0.00 | 0.00 | 47 | 936.9 |
| 20260506003104 | 26 | 17 | 4.8 | 8.0 | 0.00 | 0.00 | 0.00 | 45 | 936.7 |
| 20260506002829 | 26 | 335 | 4.8 | 8.0 | 0.00 | 0.00 | 0.00 | 45 | 936.6 |
| 20260506002052 | 26 | 336 | 6.4 | 9.7 | 0.00 | 0.00 | 0.00 | 45 | 936.4 |
| 20260506001546 | 26 | 320 | 6.4 | 9.7 | 0.00 | 0.00 | 0.00 | 44 | 936.5 |
| 20260506001041 | 26 | 21 | 6.4 | 11.3 | 0.00 | 0.00 | 0.00 | 43 | 936.3 |
| 20260506000806 | 26 | 309 | 6.4 | 11.3 | 0.00 | 0.00 | 0.00 | 43 | 936.3 |
| 20260506000028 | 27 | 5 | 6.4 | 9.7 | 0.00 | 0.00 | 0.00 | 44 | 935.9 |
| 20260505235522 | 27 | 333 | 6.4 | 9.7 | 0.00 | 0.00 | 0.00 | 43 | 936.2 |
| 20260505235016 | 27 | 332 | 6.4 | 11.3 | 0.00 | 0.00 | 0.00 | 42 | 936.2 |
| 20260505234510 | 27 | 355 | 6.4 | 12.9 | 0.00 | 0.00 | 0.00 | 41 | 935.9 |
| 20260505234004 | 28 | 329 | 9.7 | 17.7 | 0.00 | 0.00 | 0.00 | 39 | 935.8 |
| 20260505233459 | 28 | 336 | 11.3 | 17.7 | 0.00 | 0.00 | 0.00 | 38 | 935.9 |
| 20260505232952 | 28 | 17 | 11.3 | 22.5 | 0.00 | 0.00 | 0.00 | 39 | 935.9 |
| 20260505232447 | 29 | 5 | 11.3 | 20.9 | 0.00 | 0.00 | 0.00 | 38 | 935.9 |
| 20260505231940 | 29 | 339 | 8.0 | 19.3 | 0.00 | 0.00 | 0.00 | 38 | 936.0 |
| 20260505231435 | 30 | 315 | 6.4 | 17.7 | 0.00 | 0.00 | 0.00 | 36 | 935.7 |
| 20260505230928 | 30 | 336 | 8.0 | 17.7 | 0.00 | 0.00 | 0.00 | 35 | 935.7 |
| 20260505230422 | 30 | 0 | 6.4 | 14.5 | 0.00 | 0.00 | 0.00 | 35 | 935.6 |
| 20260505225916 | 30 | 326 | 6.4 | 12.9 | 0.00 | 0.00 | 0.00 | 36 | 935.8 |
| 20260505225410 | 30 | 344 | 6.4 | 14.5 | 0.00 | 0.00 | 0.00 | 34 | 935.8 |
| 20260505224904 | 31 | 331 | 8.0 | 14.5 | 0.00 | 0.00 | 0.00 | 33 | 935.9 |
| 20260505224358 | 31 | 281 | 8.0 | 19.3 | 0.00 | 0.00 | 0.00 | 33 | 935.8 |
| 20260505223852 | 31 | 223 | 6.4 | 19.3 | 0.00 | 0.00 | 0.00 | 35 | 935.7 |
| 20260505223346 | 31 | 203 | 6.4 | 14.5 | 0.00 | 0.00 | 0.00 | 33 | 935.6 |
| 20260505222840 | 31 | 229 | 6.4 | 14.5 | 0.00 | 0.00 | 0.00 | 30 | 935.6 |
| 20260505222335 | 31 | 257 | 8.0 | 16.1 | 0.00 | 0.00 | 0.00 | 31 | 935.5 |
| 20260505221828 | 31 | 285 | 6.4 | 16.1 | 0.00 | 0.00 | 0.00 | 32 | 935.4 |
| 20260505221323 | 31 | 240 | 6.4 | 14.5 | 0.00 | 0.00 | 0.00 | 34 | 935.4 |
| 20260505220816 | 31 | 217 | 8.0 | 17.7 | 0.00 | 0.00 | 0.00 | 34 | 935.3 |
| 20260505220541 | 31 | 234 | 8.0 | 16.1 | 0.00 | 0.00 | 0.00 | 35 | 935.2 |
| 20260505215804 | 31 | 207 | 9.7 | 17.7 | 0.00 | 0.00 | 0.00 | 34 | 935.3 |
| 20260505215258 | 31 | 200 | 9.7 | 20.9 | 0.00 | 0.00 | 0.00 | 35 | 935.5 |
| 20260505214752 | 31 | 176 | 11.3 | 20.9 | 0.00 | 0.00 | 0.00 | 33 | 935.5 |
| 20260505214246 | 31 | 223 | 11.3 | 19.3 | 0.00 | 0.00 | 0.00 | 34 | 935.5 |
| 20260505213740 | 32 | 197 | 11.3 | 19.3 | 0.00 | 0.00 | 0.00 | 34 | 935.6 |
| 20260505213234 | 32 | 240 | 9.7 | 17.7 | 0.00 | 0.00 | 0.00 | 33 | 935.6 |
| 20260505212729 | 32 | 217 | 8.0 | 17.7 | 0.00 | 0.00 | 0.00 | 33 | 935.7 |
| 20260505212226 | 32 | 238 | 8.0 | 20.9 | 0.00 | 0.00 | 0.00 | 32 | 935.7 |
| 20260505211722 | 32 | 209 | 8.0 | 24.1 | 0.00 | 0.00 | 0.00 | 30 | 935.8 |
| 20260505211221 | 32 | 227 | 9.7 | 24.1 | 0.00 | 0.00 | 0.00 | 29 | 935.8 |
| 20260505210952 | 32 | 231 | 8.0 | 17.7 | 0.00 | 0.00 | 0.00 | 31 | 936.0 |
| 20260505210222 | 32 | 213 | 8.0 | 14.5 | 0.00 | 0.00 | 0.00 | 35 | 936.0 |
| 20260505205720 | 32 | 200 | 11.3 | 20.9 | 0.00 | 0.00 | 0.00 | 33 | 936.0 |
| 20260505205216 | 32 | 221 | 12.9 | 22.5 | 0.00 | 0.00 | 0.00 | 36 | 936.1 |
| 20260505204717 | 32 | 239 | 12.9 | 24.1 | 0.00 | 0.00 | 0.00 | 33 | 936.2 |
| 20260505204216 | 32 | 236 | 11.3 | 24.1 | 0.00 | 0.00 | 0.00 | 32 | 936.1 |
| 20260505203716 | 32 | 194 | 9.7 | 24.1 | 0.00 | 0.00 | 0.00 | 33 | 936.1 |
| 20260505203217 | 32 | 192 | 9.7 | 24.1 | 0.00 | 0.00 | 0.00 | 34 | 936.2 |
| 20260505202720 | 32 | 249 | 9.7 | 22.5 | 0.00 | 0.00 | 0.00 | 32 | 936.1 |
| 20260505202216 | 32 | 231 | 11.3 | 22.5 | 0.00 | 0.00 | 0.00 | 34 | 936.2 |
| 20260505201717 | 32 | 167 | 9.7 | 19.3 | 0.00 | 0.00 | 0.00 | 35 | 936.3 |
| 20260505201216 | 32 | 196 | 8.0 | 25.7 | 0.00 | 0.00 | 0.00 | 38 | 936.4 |
| 20260505200717 | 32 | 246 | 8.0 | 25.7 | 0.00 | 0.00 | 0.00 | 37 | 936.5 |
| 20260505200456 | 32 | 242 | 9.7 | 20.9 | 0.00 | 0.00 | 0.00 | 38 | 936.6 |
| 20260505195715 | 32 | 198 | 9.7 | 27.4 | 0.00 | 0.00 | 0.00 | 36 | 936.6 |
| 20260505195214 | 31 | 212 | 11.3 | 27.4 | 0.00 | 0.00 | 0.00 | 40 | 936.6 |
| 20260505194715 | 31 | 212 | 9.7 | 20.9 | 0.00 | 0.00 | 0.00 | 37 | 936.7 |
| 20260505194214 | 31 | 249 | 8.0 | 19.3 | 0.00 | 0.00 | 0.00 | 39 | 936.6 |
| 20260505193716 | 31 | 233 | 8.0 | 19.3 | 0.00 | 0.00 | 0.00 | 37 | 936.7 |
| 20260505193214 | 31 | 228 | 9.7 | 20.9 | 0.00 | 0.00 | 0.00 | 41 | 936.8 |
| 20260505192716 | 31 | 255 | 12.9 | 24.1 | 0.00 | 0.00 | 0.00 | 39 | 936.8 |
| 20260505192450 | 31 | 179 | 11.3 | 24.1 | 0.00 | 0.00 | 0.00 | 41 | 936.9 |
| 20260505191946 | 31 | 227 | 8.0 | 20.9 | 0.00 | 0.00 | 0.00 | 41 | 936.8 |
| 20260505191210 | 31 | 191 | 8.0 | 19.3 | 0.00 | 0.00 | 0.00 | 41 | 937.1 |
| 20260505190711 | 31 | 243 | 11.3 | 27.4 | 0.00 | 0.00 | 0.00 | 44 | 937.1 |
| 20260505190210 | 30 | 193 | 9.7 | 27.4 | 0.00 | 0.00 | 0.00 | 43 | 937.1 |
| 20260505185710 | 30 | 202 | 8.0 | 16.1 | 0.00 | 0.00 | 0.00 | 45 | 937.1 |
| 20260505185210 | 30 | 200 | 8.0 | 16.1 | 0.00 | 0.00 | 0.00 | 45 | 937.1 |
| 20260505184710 | 30 | 207 | 8.0 | 16.1 | 0.00 | 0.00 | 0.00 | 48 | 937.2 |
| 20260505184211 | 30 | 202 | 8.0 | 16.1 | 0.00 | 0.00 | 0.00 | 45 | 937.2 |
| 20260505183710 | 30 | 213 | 9.7 | 22.5 | 0.00 | 0.00 | 0.00 | 49 | 937.3 |
| 20260505183212 | 30 | 244 | 11.3 | 22.5 | 0.00 | 0.00 | 0.00 | 45 | 937.4 |
| 20260505182937 | 30 | 241 | 9.7 | 22.5 | 0.00 | 0.00 | 0.00 | 46 | 937.5 |
| 20260505182429 | 30 | 233 | 11.3 | 24.1 | 0.00 | 0.00 | 0.00 | 51 | 937.6 |
| 20260505181652 | 30 | 226 | 12.9 | 24.1 | 0.00 | 0.00 | 0.00 | 50 | 937.7 |
| 20260505181147 | 29 | 256 | 9.7 | 20.9 | 0.00 | 0.00 | 0.00 | 54 | 937.7 |
| 20260505180641 | 28 | 249 | 9.7 | 16.1 | 0.00 | 0.00 | 0.00 | 51 | 937.8 |
| 20260505180135 | 28 | 209 | 9.7 | 19.3 | 0.00 | 0.00 | 0.00 | 52 | 937.8 |
| 20260505175629 | 28 | 199 | 9.7 | 19.3 | 0.00 | 0.00 | 0.00 | 50 | 937.9 |
| 20260505175123 | 28 | 227 | 9.7 | 24.1 | 0.00 | 0.00 | 0.00 | 55 | 937.9 |
| 20260505174617 | 28 | 246 | 9.7 | 24.1 | 0.00 | 0.00 | 0.00 | 53 | 937.9 |
| 20260505174110 | 28 | 252 | 9.7 | 20.9 | 0.00 | 0.00 | 0.00 | 54 | 937.9 |
| 20260505173604 | 28 | 219 | 8.0 | 19.3 | 0.00 | 0.00 | 0.00 | 55 | 937.9 |
| 20260505173058 | 27 | 257 | 8.0 | 16.1 | 0.00 | 0.00 | 0.00 | 60 | 937.8 |
| 20260505172553 | 27 | 246 | 11.3 | 29.0 | 0.00 | 0.00 | 0.00 | 56 | 937.8 |
| 20260505172047 | 27 | 204 | 9.7 | 29.0 | 0.00 | 0.00 | 0.00 | 56 | 937.8 |
| 20260505171540 | 27 | 234 | 8.0 | 19.3 | 0.00 | 0.00 | 0.00 | 58 | 937.8 |
| 20260505171034 | 27 | 209 | 9.7 | 19.3 | 0.00 | 0.00 | 0.00 | 56 | 937.8 |
| 20260505170529 | 27 | 255 | 9.7 | 19.3 | 0.00 | 0.00 | 0.00 | 59 | 937.9 |
| 20260505170022 | 27 | 235 | 9.7 | 19.3 | 0.00 | 0.00 | 0.00 | 59 | 937.8 |
| 20260505165516 | 27 | 210 | 11.3 | 20.9 | 0.00 | 0.00 | 0.00 | 60 | 937.9 |
| 20260505165241 | 27 | 234 | 9.7 | 20.9 | 0.00 | 0.00 | 0.00 | 59 | 937.9 |
| 20260505164505 | 27 | 196 | 9.7 | 24.1 | 0.00 | 0.00 | 0.00 | 61 | 938.0 |
| 20260505163959 | 26 | 208 | 11.3 | 24.1 | 0.00 | 0.00 | 0.00 | 62 | 938.0 |
| 20260505163452 | 26 | 232 | 9.7 | 19.3 | 0.00 | 0.00 | 0.00 | 64 | 938.0 |
| 20260505162947 | 26 | 263 | 8.0 | 19.3 | 0.00 | 0.00 | 0.00 | 65 | 938.1 |
| 20260505162441 | 26 | 218 | 6.4 | 16.1 | 0.00 | 0.00 | 0.00 | 69 | 938.1 |
| 20260505161934 | 25 | 267 | 6.4 | 16.1 | 0.00 | 0.00 | 0.00 | 72 | 938.1 |
| 20260505161429 | 25 | 261 | 8.0 | 17.7 | 0.00 | 0.00 | 0.00 | 71 | 938.0 |
| 20260505161424 | 25 | 241 | 9.7 | 25.7 | 0.00 | 0.00 | 0.00 | 72 | 938.1 |
| 20260505160416 | 25 | 253 | 9.7 | 25.7 | 0.00 | 0.00 | 0.00 | 73 | 938.1 |
| 20260505152835 | 24 | 191 | 11.3 | 27.4 | 0.00 | 0.00 | 0.00 | 74 | 937.5 |
| 20260505152329 | 23 | 205 | 11.3 | 27.4 | 0.00 | 0.00 | 0.00 | 74 | 937.7 |
| 20260505151823 | 23 | 234 | 12.9 | 20.9 | 0.00 | 0.00 | 0.00 | 76 | 937.6 |
| 20260505151317 | 23 | 228 | 14.5 | 27.4 | 0.00 | 0.00 | 0.00 | 75 | 937.5 |
| 20260505150811 | 23 | 213 | 16.1 | 30.6 | 0.00 | 0.00 | 0.00 | 76 | 937.3 |
| 20260505150305 | 23 | 198 | 14.5 | 29.0 | 0.00 | 0.00 | 0.00 | 77 | 937.3 |